Meteo Giornale » Osservazioni meteo Gran Bretagna » Londra City AP

ore: 13:50 - Osservazioni Meteo Londra City AP
Lat. 51° 30' N Lon. 0° 30' W Alt. 5 metri s.l.m.

sereno Europe/London

8 °C

Sereno

Temp. 24 Ore

1 °C

8 °C

Nord

5.5 Km/h

Dew point 3 °C

Umidità 70 %

Visibilità  10 Km

Il sole sorge alle ore 07:52

Il sole tramonta alle ore 16:33

Data e Ora Cielo e Fenomeni T °C DP °C Um. % Pres. hPa Vis. km Vento km/h
Oggi h: 13:50 sereno Sereno 8 3 70 1041 10 N 5.5
Oggi h: 13:20 sereno Sereno 8 3 70 1041 10 O/SO 9.3
Oggi h: 12:50 sereno Sereno 7 3 75 1041 10 O 7.4
Oggi h: 12:20 sereno Sereno 6 3 81 1042 9 SO 7.4
Oggi h: 11:50 sereno Sereno 6 2 75 1042 10 SO 9.3
Oggi h: 11:20 sereno Sereno 5 2 80 1042 9 SO 9.3
Oggi h: 10:50 sereno Sereno 4 2 86 1043 9 SO 11.1
Oggi h: 10:20 sereno Sereno 4 2 86 1043 9 SO 9.3
Oggi h: 09:50 sereno Sereno 3 1 86 1043 8 S/SO 9.3
Oggi h: 09:20 poco_nuvoloso Poco Nuvoloso 2 1 93 1043 7 O 7.4
Oggi h: 08:50 sereno Sereno 2 1 93 1042 7 O 7.4
Oggi h: 08:20 sereno Sereno 1 0 93 1042 7 O/SO 9.3
Oggi h: 07:50 sereno Sereno 1 0 93 1042 7 SO 11.1
Oggi h: 07:20 sereno Sereno 1 0 93 1042 7 O/SO 11.1
Oggi h: 06:50 sereno Sereno 1 -0 93 1042 8 SO 9.3
Oggi h: 06:20 sereno Sereno 1 -0 93 1042 8 O/SO 9.3
Oggi h: 05:50 sereno Sereno 1 -0 93 1042 9 O/SO 7.4
Oggi h: 05:20 sereno Sereno 1 0 93 1042 10 SO 9.3
Oggi h: 04:50 sereno Sereno 2 0 86 1042 10 SO 7.4
Oggi h: 04:20 sereno Sereno 2 0 86 1042 10 SO 7.4
Oggi h: 03:50 sereno Sereno 2 0 86 1043 10 N 5.5
Oggi h: 03:20 sereno Sereno 2 0 86 1043 10 SO 7.4
Oggi h: 02:50 sereno Sereno 2 0 86 1043 10 N 5.5
Oggi h: 02:20 sereno Sereno 2 0 86 1043 10 SO 7.4
Oggi h: 01:50 sereno Sereno 2 0 86 1044 10 O/SO 7.4
Oggi h: 01:20 sereno Sereno 2 0 86 1044 10 SO 9.3
Oggi h: 00:50 sereno Sereno 3 1 86 1044 10 SO 9.3
Oggi h: 00:20 sereno Sereno 3 1 86 1044 10 SO 7.4
Ieri h: 23:50 sereno Sereno 3 1 86 1044 10 SO 7.4
Ieri h: 23:20 sereno Sereno 3 1 86 1045 10 O/SO 7.4
Ieri h: 22:50 sereno Sereno 3 1 86 1045 10 SO 7.4
Ieri h: 22:20 sereno Sereno 3 1 86 1045 10 N 5.5
Ieri h: 21:50 sereno Sereno 3 1 86 1045 10 O/SO 7.4
Ieri h: 21:20 sereno Sereno 4 1 80 1045 10 S/SO 7.4
Ieri h: 20:50 sereno Sereno 5 1 75 1045 10 SO 7.4
Ieri h: 20:20 sereno Sereno 5 1 75 1045 10 O/SO 7.4
Ieri h: 19:50 sereno Sereno 5 1 75 1046 10 N 5.5
Ieri h: 19:20 sereno Sereno 6 1 70 1045 10 O 9.3
Ieri h: 18:50 sereno Sereno 6 1 70 1045 10 O/SO 11.1
Ieri h: 18:20 sereno Sereno 6 1 70 1046 10 SO 9.3
Ieri h: 17:50 sereno Sereno 7 1 65 1046 10 O/SO 11.1
Ieri h: 17:20 sereno Sereno 6 1 70 1046 10 O/SO 9.3
Ieri h: 16:50 sereno Sereno 7 1 65 1046 10 SO 7.4
Ieri h: 16:20 sereno Sereno 7 1 65 1046 10 SO 7.4
Ieri h: 15:50 sereno Sereno 7 1 65 1046 10 SO 9.3
Ieri h: 15:20 sereno Sereno 8 1 61 1046 10 SO 7.4
Ieri h: 14:50 sereno Sereno 8 1 61 1047 10 O/SO 7.4
Ieri h: 14:20 sereno Sereno 8 1 61 1047 10 O/SO 7.4
Ieri h: 13:50 sereno Sereno 8 1 61 1047 10 O/SO 7.4